Location: Rounton
(54.4000°N, 1.3500°W)
Time: 13:22:55
(UTC+00:00)

Transit 2A Rocket - Pass Details

Date: 09 December 2021
Orbit: 584 x 918 km, 66.7° (Epoch: 17 January)

Event Time Altitude Azimuth Distance (km) Brightness Sun altitude
Rises 16:33:22 0° 311° (NW) 3,557 8.7 -7.1°
Reaches altitude 10° 16:37:04 10° 290° (WNW) 2,584 8.4 -7.5°
Maximum altitude 16:40:15 15° 258° (WSW) 2,211 8.7 -7.9°
Drops below altitude 10° 16:43:21 10° 225° (SW) 2,495 9.1 -8.3°
Sets 16:46:50 0° 203° (SSW) 3,363 9.2 -8.8°
